[[{"header":{"parameterUnit":"m.s-1","parameterCategory":1,"la1":30.2992,"la2":30.254,"lo1":-89.0895,"lo2":-89.0443,"dy":0.0025,"dx":0.0025,"nx":19,"ny":19,"refTime":"2026-05-06T21:00:00:Z","depth":0,"parameterNumber":2,"parameterNumberName":"U-component_of_WINDS"},"data":[0,0,0,1.3592,1.3596,1.3773,1.3774,1.4003,1.4005,0,0,0,0,0,0,0,0,0,0,0,1.3536,1.3538,1.3592,1.3596,1.3773,1.3774,1.4002,1.4005,0,0,0,0,0,0,0,0,0,0,0,1.3536,1.3537,1.3539,1.3597,1.3773,1.3774,1.4002,1.3869,0,0,0,0,0,0,0,0,0,0,1.3697,1.364,1.3537,1.3539,1.3598,1.3773,1.3774,1.3862,1.3877,1.3922,0,1.3957,0,1.3984,1.402,1.4021,0,0,0,1.36,1.3628,1.3678,1.3539,1.3599,1.3772,1.3694,1.387,1.3887,1.3942,1.396,1.3969,1.3988,1.4021,1.4022,1.4261,1.4262,0,0,1.359,1.3567,1.3667,1.3689,1.3656,1.3689,1.37,1.3881,1.3901,1.3961,1.3974,1.3992,1.4023,1.4025,1.426,1.4261,0,0,0,1.3559,1.356,1.3606,1.368,1.3711,1.3694,1.3706,1.3893,1.391,1.3977,1.3994,1.4024,1.4027,1.4259,1.4261,1.4284,0,0,0,1.3554,1.3542,1.3602,1.359,1.3707,1.3803,1.3715,1.3897,1.3918,1.3993,1.4024,1.4029,1.4258,1.426,1.4281,1.43,0,0,0,1.3526,1.3539,1.3563,1.3588,1.3663,1.3801,1.3828,1.3902,1.3929,1.4021,1.403,1.4257,1.426,1.4279,1.4296,1.4358,0,0,0,1.3491,1.3582,1.3563,1.3673,1.3661,1.3812,1.3827,1.3942,1.4023,1.4025,1.4258,1.426,1.4278,1.4293,1.4355,1.4406,1.4424,0,0,1.3594,1.3594,1.3661,1.3648,1.3796,1.3787,1.3941,1.4039,1.4071,1.4197,1.4203,1.4282,1.4296,1.4357,1.4533,1.4548,0,0,0,1.3686,1.3733,1.3778,1.3852,1.3927,1.3994,1.407,1.4107,1.4215,1.4129,1.4321,1.433,1.4367,1.4393,1.4405,1.444,1.4271,1.427,1.427,1.38,1.3833,1.3947,1.4002,1.4074,1.4152,1.4216,1.428,1.4293,1.4339,1.4377,1.4479,1.4508,1.4518,1.4554,1.4405,1.4405,1.4405,1.4406,1.3956,1.403,1.4045,1.416,1.4197,1.4296,1.4377,1.4383,1.4484,1.4453,1.4487,1.4451,1.4533,1.4566,1.4408,1.4407,1.4407,1.4407,1.4407,1.4036,1.4077,1.4118,1.4231,1.4315,1.437,1.4465,1.4496,1.4526,1.4559,1.4605,1.4605,1.461,1.4578,1.4579,1.4579,1.4579,1.458,1.458,1.4103,1.4148,1.4223,1.4311,1.4364,1.4439,1.4519,1.4575,1.4644,1.4659,1.466,1.4671,1.4533,1.4498,1.4586,1.4585,1.4584,1.4583,1.4583,1.4251,1.4223,1.4338,1.4391,1.4499,1.4583,1.4619,1.4729,1.478,1.4827,1.4832,1.4723,1.4727,1.4717,1.469,1.4821,1.4821,1.4821,1.4821,1.432,1.4324,1.445,1.4533,1.4619,1.4664,1.48,1.4865,1.4929,1.4964,1.4949,1.4914,1.4903,1.4914,1.49,1.4875,1.505,1.5051,1.5051,1.4415,1.4428,1.4535,1.4593,1.468,1.4756,1.4885,1.4985,1.5052,1.5061,1.4992,1.4983,1.4927,1.4906,1.4913,1.4891,1.4845,0,0]},{"header":{"parameterUnit":"m.s-1","parameterCategory":1,"la1":30.2992,"la2":30.254,"lo1":-89.0895,"lo2":-89.0443,"dy":0.0025,"dx":0.0025,"nx":19,"ny":19,"refTime":"2026-05-06T21:00:00:Z","depth":0,"parameterNumber":3,"parameterNumberName":"V-component_of_WINDS"},"data":[0,0,0,0.1297,0.1301,0.1479,0.148,0.1715,0.1717,0,0,0,0,0,0,0,0,0,0,0,0.1247,0.1249,0.1297,0.1302,0.1479,0.148,0.1715,0.1717,0,0,0,0,0,0,0,0,0,0,0,0.1247,0.1249,0.1251,0.1302,0.1479,0.148,0.1714,0.1578,0,0,0,0,0,0,0,0,0,0,0.1404,0.136,0.1248,0.1251,0.1303,0.1479,0.148,0.1571,0.1586,0.1637,0,0.1681,0,0.1703,0.1733,0.1734,0,0,0,0.13,0.1348,0.1393,0.1251,0.1305,0.1478,0.1399,0.158,0.1597,0.1657,0.1684,0.1693,0.1707,0.1735,0.1736,0.2026,0.2028,0,0,0.1291,0.1282,0.1381,0.1404,0.1374,0.1393,0.1404,0.159,0.162,0.1685,0.1698,0.171,0.1736,0.1738,0.2025,0.2027,0,0,0,0.1263,0.1275,0.1315,0.1394,0.1425,0.1398,0.1411,0.1612,0.1625,0.1701,0.1713,0.1738,0.1741,0.2023,0.2026,0.2084,0,0,0,0.1257,0.1259,0.1311,0.1308,0.1422,0.152,0.1429,0.1612,0.1634,0.1712,0.1738,0.1743,0.2022,0.2024,0.2079,0.2114,0,0,0,0.1235,0.1256,0.1282,0.1307,0.1382,0.1518,0.1542,0.1617,0.1641,0.1734,0.1744,0.2021,0.2024,0.2075,0.2107,0.2186,0,0,0,0.121,0.1335,0.1283,0.1428,0.1381,0.1552,0.1541,0.167,0.1756,0.1739,0.2022,0.2025,0.2074,0.2103,0.2182,0.2251,0.2279,0,0,0.1363,0.1353,0.1439,0.1398,0.1575,0.1525,0.1713,0.1803,0.1822,0.1957,0.1965,0.2081,0.2106,0.2185,0.2441,0.2463,0,0,0,0.1485,0.1546,0.1595,0.1675,0.1745,0.1807,0.1868,0.1901,0.2016,0.1889,0.2132,0.2148,0.2194,0.2228,0.2247,0.2287,0.2041,0.204,0.204,0.169,0.1704,0.1846,0.1881,0.196,0.202,0.2085,0.214,0.2135,0.2192,0.2232,0.2385,0.2424,0.2438,0.248,0.2271,0.2271,0.2271,0.2271,0.1915,0.2004,0.1989,0.2122,0.2137,0.225,0.2313,0.2305,0.2413,0.2356,0.2398,0.2335,0.2462,0.2499,0.2276,0.2275,0.2275,0.2274,0.2274,0.205,0.2095,0.213,0.2246,0.2334,0.2367,0.247,0.2481,0.2492,0.2534,0.2577,0.2576,0.2575,0.2553,0.2554,0.2554,0.2555,0.2555,0.2555,0.2176,0.2214,0.2298,0.238,0.2431,0.2501,0.2562,0.2614,0.2675,0.2675,0.2676,0.2664,0.2471,0.2422,0.2564,0.2562,0.2561,0.256,0.256,0.2398,0.2348,0.2478,0.253,0.2626,0.2712,0.2723,0.2828,0.2873,0.2924,0.2903,0.2759,0.2751,0.2736,0.2695,0.2899,0.2899,0.2899,0.2899,0.2511,0.2507,0.264,0.2722,0.2803,0.2826,0.2973,0.3021,0.3064,0.3093,0.3065,0.3013,0.2997,0.2998,0.2978,0.294,0.3202,0.3202,0.3202,0.2648,0.2651,0.2773,0.2811,0.2887,0.2952,0.309,0.3186,0.3225,0.3215,0.3116,0.3103,0.3018,0.299,0.2977,0.2945,0.2876,0,0]}]]